| time (UTC) | temp F | wind direction | speed knots | gust knots | rain 1hr in | rain 24hr in | rain mn in | humidity % | barometer mb |
| 20260504035538 | 55 | 308 | 1.7 | 1.7 | 0.00 | 0.00 | 0.00 | 70 | 1013.0 |
| 20260504035034 | 55 | 301 | 1.7 | 2.6 | 0.00 | 0.00 | 0.00 | 70 | 1013.2 |
| 20260504034533 | 54 | 331 | 2.6 | 2.6 | 0.00 | 0.00 | 0.00 | 72 | 1012.9 |
| 20260504034029 | 54 | 304 | 1.7 | 1.7 | 0.00 | 0.00 | 0.00 | 74 | 1013.2 |
| 20260504033528 | 54 | 303 | 0.9 | 0.9 | 0.00 | 0.00 | 0.00 | 75 | 1013.0 |
| 20260504033024 | 54 | 300 | 0.9 | 0.9 | 0.00 | 0.00 | 0.00 | 73 | 1012.9 |
| 20260504032521 | 55 | 306 | 1.7 | 1.7 | 0.00 | 0.00 | 0.00 | 71 | 1012.8 |
| 20260504032018 | 55 | 307 | 0.9 | 0.9 | 0.00 | 0.00 | 0.00 | 72 | 1012.9 |
| 20260504031515 | 56 | 309 | 1.7 | 1.7 | 0.00 | 0.00 | 0.00 | 69 | 1013.0 |
| 20260504031011 | 56 | 303 | 0.9 | 1.7 | 0.00 | 0.00 | 0.00 | 68 | 1013.0 |
| 20260504030509 | 56 | 306 | 1.7 | 1.7 | 0.00 | 0.00 | 0.00 | 68 | 1012.9 |
| 20260504030005 | 56 | 307 | 1.7 | 1.7 | 0.00 | 0.00 | 0.00 | 68 | 1012.8 |
| 20260504025502 | 56 | 306 | 0.9 | 0.9 | 0.00 | 0.00 | 0.00 | 68 | 1012.8 |
| 20260504024958 | 57 | 310 | 0.0 | 0.0 | 0.00 | 0.00 | 0.00 | 67 | 1012.9 |
| 20260504024455 | 57 | 298 | 0.9 | 0.9 | 0.00 | 0.00 | 0.00 | 66 | 1012.8 |
| 20260504023952 | 57 | 307 | 1.7 | 1.7 | 0.00 | 0.00 | 0.00 | 65 | 1012.7 |
| 20260504023449 | 57 | 306 | 1.7 | 1.7 | 0.00 | 0.00 | 0.00 | 65 | 1012.6 |
| 20260504022944 | 57 | 298 | 0.9 | 1.7 | 0.00 | 0.00 | 0.00 | 66 | 1012.8 |
| 20260504022441 | 58 | 310 | 0.9 | 0.9 | 0.00 | 0.00 | 0.00 | 65 | 1012.5 |
| 20260504021937 | 57 | 311 | 0.9 | 1.7 | 0.00 | 0.00 | 0.00 | 65 | 1012.6 |
| 20260504021435 | 57 | 293 | 1.7 | 1.7 | 0.00 | 0.00 | 0.00 | 66 | 1012.5 |
| 20260504020932 | 57 | 308 | 0.0 | 0.0 | 0.00 | 0.00 | 0.00 | 68 | 1012.3 |
| 20260504020428 | 57 | 303 | 0.0 | 0.0 | 0.00 | 0.00 | 0.00 | 68 | 1012.4 |
| 20260504015925 | 57 | 303 | 0.0 | 0.9 | 0.00 | 0.00 | 0.00 | 68 | 1012.3 |
| 20260504015421 | 58 | 304 | 0.0 | 0.9 | 0.00 | 0.00 | 0.00 | 66 | 1012.1 |
| 20260504014917 | 58 | 276 | 0.9 | 1.7 | 0.00 | 0.00 | 0.00 | 66 | 1012.2 |
| 20260504014414 | 58 | 301 | 0.0 | 0.9 | 0.00 | 0.00 | 0.00 | 67 | 1012.2 |
| 20260504013910 | 57 | 301 | 0.9 | 0.9 | 0.00 | 0.00 | 0.00 | 67 | 1012.1 |
| 20260504013409 | 58 | 305 | 0.0 | 0.0 | 0.00 | 0.00 | 0.00 | 67 | 1012.1 |
| 20260504012905 | 59 | 299 | 0.0 | 0.9 | 0.00 | 0.00 | 0.00 | 65 | 1012.1 |
| 20260504012403 | 59 | 310 | 0.0 | 0.9 | 0.00 | 0.00 | 0.00 | 64 | 1012.0 |
| 20260504011900 | 60 | 306 | 0.0 | 0.0 | 0.00 | 0.00 | 0.00 | 63 | 1012.1 |
| 20260504011357 | 60 | 278 | 0.9 | 0.9 | 0.00 | 0.00 | 0.00 | 62 | 1012.0 |
| 20260504010852 | 60 | 304 | 0.9 | 0.9 | 0.00 | 0.00 | 0.00 | 62 | 1012.1 |
| 20260504010348 | 60 | 305 | 0.0 | 0.9 | 0.00 | 0.00 | 0.00 | 61 | 1012.0 |
| 20260504005845 | 60 | 308 | 0.9 | 1.7 | 0.00 | 0.00 | 0.00 | 62 | 1011.7 |
| 20260504005342 | 60 | 302 | 0.9 | 0.9 | 0.00 | 0.00 | 0.00 | 62 | 1011.9 |
| 20260504004839 | 60 | 296 | 1.7 | 1.7 | 0.00 | 0.00 | 0.00 | 63 | 1011.9 |
| 20260504004337 | 60 | 303 | 0.9 | 0.9 | 0.00 | 0.00 | 0.00 | 62 | 1011.8 |
| 20260504003833 | 60 | 277 | 0.9 | 1.7 | 0.00 | 0.00 | 0.00 | 62 | 1011.7 |
| 20260504003330 | 60 | 274 | 0.9 | 1.7 | 0.00 | 0.00 | 0.00 | 62 | 1011.7 |
| 20260504002827 | 61 | 306 | 0.0 | 0.0 | 0.00 | 0.00 | 0.00 | 62 | 1011.6 |
| 20260504002324 | 61 | 306 | 0.9 | 0.9 | 0.00 | 0.00 | 0.00 | 61 | 1011.8 |
| 20260504001821 | 62 | 259 | 1.7 | 1.7 | 0.00 | 0.00 | 0.00 | 60 | 1011.4 |
| 20260504001319 | 62 | 298 | 0.9 | 0.9 | 0.00 | 0.00 | 0.00 | 60 | 1011.7 |
| 20260504000815 | 62 | 279 | 0.9 | 1.7 | 0.00 | 0.00 | 0.00 | 59 | 1011.7 |
| 20260504000312 | 62 | 301 | 0.0 | 0.9 | 0.00 | 0.00 | 0.00 | 60 | 1011.4 |
| 20260503235810 | 63 | 303 | 0.0 | 0.9 | 0.00 | 0.00 | 0.00 | 58 | 1011.6 |
| 20260503235307 | 64 | 284 | 0.9 | 1.7 | 0.00 | 0.00 | 0.00 | 55 | 1011.6 |
| 20260503234804 | 64 | 274 | 1.7 | 1.7 | 0.00 | 0.00 | 0.00 | 55 | 1011.6 |
| 20260503234257 | 64 | 285 | 1.7 | 1.7 | 0.00 | 0.00 | 0.00 | 54 | 1011.6 |
| 20260503233754 | 65 | 291 | 1.7 | 1.7 | 0.00 | 0.00 | 0.00 | 53 | 1011.6 |
| 20260503233249 | 65 | 288 | 2.6 | 2.6 | 0.00 | 0.00 | 0.00 | 51 | 1011.5 |
| 20260503232747 | 65 | 284 | 2.6 | 2.6 | 0.00 | 0.00 | 0.00 | 52 | 1011.6 |
| 20260503232244 | 66 | 267 | 2.6 | 2.6 | 0.00 | 0.00 | 0.00 | 50 | 1011.6 |
| 20260503231742 | 66 | 249 | 4.3 | 5.2 | 0.00 | 0.00 | 0.00 | 49 | 1011.6 |
| 20260503231239 | 66 | 276 | 2.6 | 2.6 | 0.00 | 0.00 | 0.00 | 50 | 1011.7 |
| 20260503230734 | 66 | 282 | 3.5 | 3.5 | 0.00 | 0.00 | 0.00 | 50 | 1011.7 |
| 20260503230231 | 66 | 279 | 4.3 | 5.2 | 0.00 | 0.00 | 0.00 | 48 | 1011.7 |
| 20260503225724 | 66 | 281 | 1.7 | 1.7 | 0.00 | 0.00 | 0.00 | 49 | 1011.7 |
| 20260503225224 | 66 | 299 | 3.5 | 3.5 | 0.00 | 0.00 | 0.00 | 47 | 1011.6 |
| 20260503224721 | 66 | 324 | 3.5 | 5.2 | 0.00 | 0.00 | 0.00 | 47 | 1011.7 |
| 20260503224219 | 67 | 298 | 3.5 | 5.2 | 0.00 | 0.00 | 0.00 | 46 | 1011.6 |
| 20260503223716 | 67 | 351 | 1.7 | 2.6 | 0.00 | 0.00 | 0.00 | 47 | 1011.6 |
| 20260503223214 | 68 | 347 | 3.5 | 3.5 | 0.00 | 0.00 | 0.00 | 46 | 1011.7 |
| 20260503222710 | 68 | 292 | 3.5 | 5.2 | 0.00 | 0.00 | 0.00 | 46 | 1011.8 |
| 20260503222208 | 68 | 265 | 5.2 | 6.1 | 0.00 | 0.00 | 0.00 | 44 | 1011.9 |
| 20260503221706 | 68 | 311 | 0.9 | 1.7 | 0.00 | 0.00 | 0.00 | 45 | 1011.7 |
| 20260503221203 | 68 | 306 | 2.6 | 3.5 | 0.00 | 0.00 | 0.00 | 45 | 1011.9 |
| 20260503220700 | 69 | 326 | 3.5 | 6.1 | 0.00 | 0.00 | 0.00 | 43 | 1011.8 |
| 20260503220156 | 69 | 330 | 2.6 | 3.5 | 0.00 | 0.00 | 0.00 | 44 | 1011.9 |
| 20260503215653 | 68 | 288 | 2.6 | 3.5 | 0.00 | 0.00 | 0.00 | 43 | 1011.9 |
| 20260503215149 | 69 | 305 | 6.1 | 7.0 | 0.00 | 0.00 | 0.00 | 44 | 1012.1 |
| 20260503214648 | 70 | 318 | 0.9 | 0.9 | 0.00 | 0.00 | 0.00 | 42 | 1011.8 |
| 20260503214143 | 68 | 320 | 0.9 | 0.9 | 0.00 | 0.00 | 0.00 | 43 | 1012.0 |
| 20260503213638 | 69 | 317 | 2.6 | 2.6 | 0.00 | 0.00 | 0.00 | 42 | 1012.0 |
| 20260503213134 | 68 | 319 | 5.2 | 6.1 | 0.00 | 0.00 | 0.00 | 46 | 1012.0 |
| 20260503212631 | 68 | 297 | 6.1 | 7.8 | 0.00 | 0.00 | 0.00 | 45 | 1012.0 |
| 20260503212129 | 69 | 282 | 7.8 | 7.8 | 0.00 | 0.00 | 0.00 | 41 | 1012.0 |
| 20260503211627 | 68 | 332 | 0.0 | 0.9 | 0.00 | 0.00 | 0.00 | 43 | 1012.1 |
| 20260503211121 | 68 | 326 | 0.9 | 1.7 | 0.00 | 0.00 | 0.00 | 43 | 1012.1 |
| 20260503210618 | 68 | 332 | 3.5 | 6.1 | 0.00 | 0.00 | 0.00 | 45 | 1012.2 |
| 20260503210114 | 70 | 338 | 5.2 | 6.1 | 0.00 | 0.00 | 0.00 | 43 | 1012.2 |
| 20260503205605 | 68 | 304 | 2.6 | 3.5 | 0.00 | 0.00 | 0.00 | 44 | 1012.3 |
| 20260503205101 | 69 | 326 | 3.5 | 5.2 | 0.00 | 0.00 | 0.00 | 46 | 1012.3 |
| 20260503204558 | 69 | 298 | 5.2 | 6.1 | 0.00 | 0.00 | 0.00 | 43 | 1012.3 |
| 20260503204056 | 67 | 293 | 1.7 | 1.7 | 0.00 | 0.00 | 0.00 | 44 | 1012.4 |
| 20260503203553 | 69 | 287 | 4.3 | 6.1 | 0.00 | 0.00 | 0.00 | 48 | 1012.7 |
| 20260503203050 | 70 | 4 | 0.9 | 0.9 | 0.00 | 0.00 | 0.00 | 42 | 1012.6 |
| 20260503202548 | 68 | 308 | 3.5 | 5.2 | 0.00 | 0.00 | 0.00 | 46 | 1012.7 |
| 20260503202045 | 66 | 324 | 7.0 | 9.6 | 0.00 | 0.00 | 0.00 | 45 | 1012.9 |
| 20260503201543 | 67 | 318 | 6.1 | 7.8 | 0.00 | 0.00 | 0.00 | 45 | 1012.9 |
| 20260503201040 | 68 | 333 | 0.9 | 1.7 | 0.00 | 0.00 | 0.00 | 46 | 1012.8 |
| 20260503200536 | 67 | 291 | 5.2 | 6.1 | 0.00 | 0.00 | 0.00 | 45 | 1013.1 |
| 20260503200033 | 67 | 300 | 7.0 | 7.8 | 0.00 | 0.00 | 0.00 | 45 | 1013.3 |
| 20260503195530 | 68 | 293 | 8.7 | 8.7 | 0.00 | 0.00 | 0.00 | 46 | 1013.4 |
| 20260503195026 | 67 | 314 | 2.6 | 2.6 | 0.00 | 0.00 | 0.00 | 45 | 1013.5 |
| 20260503194524 | 66 | 322 | 0.9 | 1.7 | 0.00 | 0.00 | 0.00 | 46 | 1013.3 |
| 20260503194023 | 68 | 277 | 8.7 | 9.6 | 0.00 | 0.00 | 0.00 | 46 | 1013.5 |
| 20260503193520 | 67 | 243 | 4.3 | 6.1 | 0.00 | 0.00 | 0.00 | 45 | 1013.8 |
| 20260503193015 | 67 | 319 | 0.9 | 0.9 | 0.00 | 0.00 | 0.00 | 46 | 1014.1 |
| 20260503192512 | 66 | 308 | 1.7 | 2.6 | 0.00 | 0.00 | 0.00 | 47 | 1014.2 |
| 20260503192008 | 66 | 300 | 7.8 | 8.7 | 0.00 | 0.00 | 0.00 | 48 | 1013.7 |
| 20260503191505 | 67 | 230 | 6.1 | 7.0 | 0.00 | 0.00 | 0.00 | 44 | 1014.3 |
| 20260503191001 | 67 | 314 | 6.1 | 7.0 | 0.00 | 0.00 | 0.00 | 44 | 1014.1 |
| 20260503190459 | 67 | 279 | 7.8 | 8.7 | 0.00 | 0.00 | 0.00 | 46 | 1014.2 |
| 20260503185956 | 67 | 310 | 4.3 | 5.2 | 0.00 | 0.00 | 0.00 | 46 | 1014.1 |
| 20260503185452 | 67 | 3 | 1.7 | 3.5 | 0.00 | 0.00 | 0.00 | 44 | 1014.3 |
| 20260503184951 | 66 | 315 | 9.6 | 11.3 | 0.00 | 0.00 | 0.00 | 46 | 1014.1 |
| 20260503184448 | 66 | 353 | 0.9 | 1.7 | 0.00 | 0.00 | 0.00 | 52 | 1014.4 |
| 20260503183944 | 67 | 279 | 2.6 | 2.6 | 0.00 | 0.00 | 0.00 | 43 | 1014.6 |
| 20260503183441 | 66 | 319 | 1.7 | 2.6 | 0.00 | 0.00 | 0.00 | 44 | 1014.6 |
| 20260503182938 | 66 | 269 | 6.1 | 8.7 | 0.00 | 0.00 | 0.00 | 45 | 1014.7 |
| 20260503182437 | 67 | 5 | 2.6 | 2.6 | 0.00 | 0.00 | 0.00 | 45 | 1014.5 |
| 20260503181934 | 66 | 315 | 0.0 | 0.9 | 0.00 | 0.00 | 0.00 | 49 | 1014.5 |
| 20260503181431 | 65 | 236 | 1.7 | 2.6 | 0.00 | 0.00 | 0.00 | 48 | 1014.7 |
| 20260503180927 | 64 | 295 | 1.7 | 1.7 | 0.00 | 0.00 | 0.00 | 47 | 1014.6 |
| 20260503180426 | 64 | 315 | 3.5 | 5.2 | 0.00 | 0.00 | 0.00 | 51 | 1014.8 |
| 20260503175922 | 65 | 261 | 5.2 | 6.1 | 0.00 | 0.00 | 0.00 | 47 | 1014.8 |
| 20260503175420 | 64 | 306 | 3.5 | 3.5 | 0.00 | 0.00 | 0.00 | 51 | 1014.7 |
| 20260503174915 | 65 | 293 | 3.5 | 6.1 | 0.00 | 0.00 | 0.00 | 45 | 1014.8 |
| 20260503174414 | 65 | 96 | 3.5 | 3.5 | 0.00 | 0.00 | 0.00 | 45 | 1014.7 |
| 20260503173909 | 64 | 317 | 3.5 | 5.2 | 0.00 | 0.00 | 0.00 | 47 | 1014.8 |
| 20260503173405 | 63 | 294 | 8.7 | 8.7 | 0.00 | 0.00 | 0.00 | 46 | 1014.8 |
| 20260503172902 | 64 | 295 | 3.5 | 3.5 | 0.00 | 0.00 | 0.00 | 49 | 1014.6 |
| 20260503172400 | 64 | 233 | 4.3 | 5.2 | 0.00 | 0.00 | 0.00 | 47 | 1015.0 |
| 20260503171856 | 65 | 284 | 0.9 | 1.7 | 0.00 | 0.00 | 0.00 | 43 | 1014.9 |
| 20260503171353 | 64 | 309 | 5.2 | 6.1 | 0.00 | 0.00 | 0.00 | 44 | 1015.3 |
| 20260503170850 | 64 | 303 | 4.3 | 5.2 | 0.00 | 0.00 | 0.00 | 43 | 1015.2 |
| 20260503170346 | 63 | 307 | 6.1 | 7.0 | 0.00 | 0.00 | 0.00 | 47 | 1015.4 |
| 20260503150739 | 60 | 232 | 4.3 | 5.2 | 0.00 | 0.00 | 0.00 | 49 | 1016.3 |
| 20260503150235 | 60 | 256 | 1.7 | 1.7 | 0.00 | 0.00 | 0.00 | 51 | 1016.4 |
| 20260503140159 | 58 | 321 | 0.9 | 0.9 | 0.00 | 0.00 | 0.00 | 62 | 1016.0 |
| 20260503131129 | 53 | 5 | 1.7 | 2.6 | 0.00 | 0.00 | 0.00 | 69 | 1015.9 |
| 20260503130626 | 53 | 22 | 1.7 | 1.7 | 0.00 | 0.00 | 0.00 | 71 | 1015.8 |
| 20260503130124 | 53 | 60 | 1.7 | 2.6 | 0.00 | 0.00 | 0.00 | 72 | 1015.8 |
| 20260503110516 | 40 | 330 | 0.0 | 0.0 | 0.00 | 0.00 | 0.00 | 99 | 1015.1 |
| 20260503090402 | 42 | 324 | 0.0 | 0.0 | 0.00 | 0.00 | 0.00 | 95 | 1013.4 |
| 20260503081329 | 41 | 318 | 0.0 | 0.0 | 0.00 | 0.00 | 0.00 | 96 | 1013.1 |
| 20260503080826 | 42 | 321 | 0.0 | 0.0 | 0.00 | 0.00 | 0.00 | 96 | 1013.0 |
| 20260503080323 | 42 | 321 | 0.0 | 0.0 | 0.00 | 0.00 | 0.00 | 96 | 1012.7 |
| 20260503072759 | 42 | 321 | 0.0 | 0.0 | 0.00 | 0.00 | 0.00 | 95 | 1012.6 |
| 20260503072256 | 42 | 319 | 0.0 | 0.0 | 0.00 | 0.00 | 0.00 | 95 | 1012.5 |
| 20260503071752 | 43 | 318 | 0.0 | 0.0 | 0.00 | 0.00 | 0.00 | 95 | 1012.3 |
| 20260503071250 | 43 | 318 | 0.0 | 0.0 | 0.00 | 0.00 | 0.00 | 95 | 1012.4 |
| 20260503070746 | 44 | 318 | 0.9 | 0.9 | 0.00 | 0.00 | 0.00 | 94 | 1012.4 |
| 20260503070244 | 44 | 320 | 0.0 | 0.0 | 0.00 | 0.00 | 0.00 | 94 | 1012.4 |
| 20260503060203 | 45 | 319 | 0.0 | 0.0 | 0.00 | 0.00 | 0.00 | 99 | 1012.1 |
| 20260503054650 | 44 | 322 | 0.0 | 0.0 | 0.00 | 0.00 | 0.00 | 99 | 1012.2 |
| 20260503054147 | 44 | 316 | 0.0 | 0.0 | 0.00 | 0.00 | 0.00 | 99 | 1012.1 |
| 20260503053645 | 44 | 316 | 0.0 | 0.0 | 0.00 | 0.00 | 0.00 | 99 | 1012.2 |
| 20260503053144 | 45 | 324 | 0.0 | 0.0 | 0.00 | 0.00 | 0.00 | 98 | 1012.2 |
| 20260503052640 | 45 | 325 | 0.0 | 0.0 | 0.00 | 0.00 | 0.00 | 98 | 1012.2 |
| 20260503052136 | 45 | 312 | 0.0 | 0.0 | 0.00 | 0.00 | 0.00 | 98 | 1012.2 |
| 20260503051631 | 45 | 312 | 0.0 | 0.0 | 0.00 | 0.00 | 0.00 | 98 | 1012.1 |
| 20260503051129 | 45 | 313 | 0.9 | 0.9 | 0.00 | 0.00 | 0.00 | 98 | 1012.4 |
| 20260503050626 | 45 | 313 | 0.0 | 0.0 | 0.00 | 0.00 | 0.00 | 98 | 1012.3 |
| 20260503050122 | 45 | 313 | 0.0 | 0.0 | 0.00 | 0.00 | 0.00 | 98 | 1012.2 |
| 20260503045620 | 45 | 313 | 0.0 | 0.0 | 0.00 | 0.00 | 0.00 | 98 | 1012.5 |
| 20260503045117 | 46 | 313 | 0.0 | 0.0 | 0.00 | 0.00 | 0.00 | 98 | 1012.1 |
| 20260503044613 | 46 | 315 | 0.0 | 0.0 | 0.00 | 0.00 | 0.00 | 97 | 1012.2 |
| 20260503044111 | 47 | 314 | 0.0 | 0.0 | 0.00 | 0.00 | 0.00 | 97 | 1012.1 |
| 20260503043607 | 48 | 317 | 0.0 | 0.0 | 0.00 | 0.00 | 0.00 | 97 | 1012.1 |
| 20260503043104 | 48 | 330 | 0.0 | 0.9 | 0.00 | 0.00 | 0.00 | 97 | 1012.0 |
| 20260503042601 | 48 | 338 | 0.9 | 0.9 | 0.00 | 0.00 | 0.00 | 97 | 1012.0 |
| 20260503042057 | 48 | 326 | 0.9 | 0.9 | 0.00 | 0.00 | 0.00 | 97 | 1011.9 |
| 20260503041554 | 48 | 321 | 0.0 | 0.9 | 0.00 | 0.00 | 0.00 | 97 | 1011.9 |
| 20260503041052 | 48 | 324 | 0.0 | 0.0 | 0.00 | 0.00 | 0.00 | 97 | 1011.8 |
| 20260503040549 | 47 | 324 | 0.0 | 0.0 | 0.00 | 0.00 | 0.00 | 97 | 1011.8 |
| 20260503040046 | 47 | 324 | 0.0 | 0.0 | 0.00 | 0.04 | 0.04 | 96 | 1012.0 |